Location: Unspecified
(0.0000°N, 0.0000°E)
Time: 19:07:05
(UTC+00:00)

deb Briz - Pass Details

Date: 23 February 2026
Orbit: 1683 x 2323 km, 64.7° (Epoch: 11 March)

Event Time Altitude Azimuth Distance (km) Brightness Sun altitude
Rises 19:58:07 0° 248° (WSW) 5,777 ? -25.8°
Reaches altitude 10° 20:05:29 10° 276° (W) 4,862 ? -27.6°
Maximum altitude 20:09:35 12° 295° (WNW) 4,728 ? -28.6°
Drops below altitude 10° 20:13:45 10° 314° (NW) 4,903 ? -29.6°
Sets 20:21:31 0° 343° (NNW) 5,886 ? -31.6°
